Location: Cheching
(60.0667°N, 164.2167°W)
Time: 21:23:49
(UTC+00:00)

NOAA 15 - Pass Details

Date: 30 January 2021
Orbit: 798 x 812 km, 98.7° (Epoch: 07 March)

Event Time Altitude Azimuth Distance (km) Brightness Sun altitude
Rises 05:14:22 0° 161° (SSE) 3,309 7.7 -15.7°
Reaches altitude 10° 05:16:41 10° 163° (SSE) 2,384 6.9 -16.0°
Maximum altitude 05:21:58 84° 251° (WSW) 821 4.6 -16.6°
Drops below altitude 10° 05:27:20 10° 341° (NNW) 2,409 7.2 -17.3°
Sets 05:29:41 0° 342° (NNW) 3,347 8.0 -17.6°
